sat.trackr.live / text

‹ back to catalog

ASIASAT 9

NORAD 42942 · 2017-057A

PAYLOAD ACTIVE UNKNOWN

§ Identity

Operator
Country
AC
Launch date
2017-09-28
Launch site
TYMSC
Launch vehicle
Mass (kg)
RCS (m²)

Purposes: comms

External: N2YO · Heavens-Above · Gunter

§ Orbital elements

Epoch: 2026-09-09T06:04:51.354624Z

Period
1,436.09 min
Inclination
0.0147°
Eccentricity
0.0002042
Mean motion
1.00272532 rev/d
Perigee alt
35,777.8 km
Apogee alt
35,795.0 km
Semi-major
42,164.5 km
B*
0.0000e+0
RAAN
134.2692°
Arg perigee
29.9532°
Mean anomaly
37.4109°
Rev number
3,271

§ Raw data

ASIASAT 91 42942U 17057A   26252.25337216 -.00000381  00000+0  00000+0 0  99982 42942   0.0147 134.2692 0002042  29.9532  37.4109  1.00272532 32719

JSON: /api/v1/satellites/42942 · /tle

For live sub-satellite position, see the globe view (requires WebGL).

§ Visibility from observer

Set your observer location to see the next 7 days of passes ≥ 10°. The values pass through the URL so the page stays shareable.

No JS? Fill the form by hand. The geolocation button needs JavaScript.